time_stamp(utc),avg(mph),gust(mph),direction(deg),12m_air_temp(f),sonic_u(cm/s),sonic_v(cm/s),sonic_w(cm/s),pressure,2m_air_temp(f),pyranometer(W/m^2)
"2016-08-06 00:00:53+00",12.2,14.2,,75.1,-183,-488,-17,1012.7,74.9,0
"2016-08-06 00:05:53+00",10.6,12.6,,75.1,-215,-409,1,1012.65,74.8,0
"2016-08-06 00:10:53+00",13.2,16.2,,75.2,-286,-501,-9,1012.63,74.7,0
"2016-08-06 00:15:53+00",11.9,13.9,,75.2,-247,-456,-5,1012.67,74.7,0
"2016-08-06 00:20:53+00",9.6,12.6,,75.1,-159,-382,6,1012.52,74.6,0
"2016-08-06 00:25:53+00",10.6,12.6,,75,-142,-429,-2,1012.49,74.6,0
"2016-08-06 00:30:53+00",9.9,11.9,,75,-206,-379,4,1012.59,74.5,0
"2016-08-06 00:35:53+00",9.5,11.5,,74.9,-170,-370,-15,1012.52,74.4,0
"2016-08-06 00:40:53+00",11.8,13.8,,75.1,-234,-457,-5,1012.51,74.5,0
"2016-08-06 00:45:53+00",11.7,13.7,,75.1,-218,-455,0,1012.58,74.4,0
"2016-08-06 00:50:53+00",12.5,14.5,,75.1,-256,-484,-48,1012.48,74.4,0
"2016-08-06 00:55:53+00",8.8,9.8,,75,-156,-329,-46,1012.5,74.4,0
"2016-08-06 01:00:53+00",8.9,9.9,,75,-126,-371,-45,1012.49,74.3,0
"2016-08-06 01:05:53+00",8.9,10.9,,74.9,-96,-368,-61,1012.57,74.2,0
"2016-08-06 01:10:53+00",7.6,9.6,,74.9,-150,-334,-56,1012.55,74.2,0
"2016-08-06 01:15:53+00",8.8,9.8,,75.1,-202,-412,-72,1012.57,74.3,0
"2016-08-06 01:20:53+00",8.4,9.4,,75.1,-128,-352,-58,1012.54,74.3,0
"2016-08-06 01:25:53+00",10.4,12.4,,75,-148,-429,-56,1012.62,74.3,0
"2016-08-06 01:30:53+00",9.0,10.0,,74.9,-154,-384,-56,1012.59,74.2,0
"2016-08-06 01:35:53+00",9.4,11.4,,75.1,-137,-399,-68,1012.63,74.3,0
"2016-08-06 01:40:53+00",9.0,11.0,,75.1,-70,-361,-84,1012.57,74.5,0
"2016-08-06 01:45:53+00",9.8,11.8,,75.1,-148,-400,-83,1012.59,74.5,0
"2016-08-06 01:50:53+00",8.5,9.5,,75.1,-121,-339,-75,1012.46,74.5,0
"2016-08-06 01:55:53+00",8.9,9.9,,75.1,-112,-371,-66,1012.48,74.5,0
"2016-08-06 02:00:53+00",8.9,10.9,,75.2,-97,-351,-96,1012.54,74.6,0
"2016-08-06 02:05:53+00",8.1,10.1,,75.2,-91,-345,-72,1012.62,74.7,0
"2016-08-06 02:10:53+00",10.4,11.4,,75.3,-182,-402,-46,1012.47,74.8,0
"2016-08-06 02:15:53+00",9.4,11.4,,75.3,-136,-379,-40,1012.38,74.8,0
"2016-08-06 02:20:53+00",7.3,10.3,,75.2,-108,-290,-27,1012.25,74.8,0
"2016-08-06 02:25:53+00",8.3,10.3,,75.1,-155,-327,-35,1012.24,74.7,0
"2016-08-06 02:30:53+00",9.0,11.0,,75,-169,-334,-63,1012.23,74.6,0
"2016-08-06 02:35:53+00",9.8,11.8,,75.1,-181,-364,-62,1012.17,74.6,0
"2016-08-06 02:40:53+00",10.5,13.5,,75.2,-133,-425,-47,1012.12,74.7,0
"2016-08-06 02:45:53+00",12.2,14.2,,75.2,-181,-491,-55,1012.07,74.7,0
"2016-08-06 02:50:53+00",12.8,14.8,,75.2,-234,-496,-51,1012.11,74.7,0
"2016-08-06 02:55:53+00",10.4,14.4,,75.3,-248,-402,-48,1012.08,74.7,0
"2016-08-06 03:00:53+00",11.5,13.5,,75.4,-210,-443,-51,1011.91,74.8,0
"2016-08-06 03:05:53+00",11.7,13.7,,75.4,-261,-437,-58,1011.94,74.8,0
"2016-08-06 03:10:53+00",12.7,16.7,,75.5,-395,-502,-60,1011.99,74.9,0
"2016-08-06 03:15:53+00",12.3,15.3,,75.5,-404,-481,-61,1011.96,74.9,0
"2016-08-06 03:20:53+00",11.0,13.0,,75.6,-357,-414,-44,1011.92,75,0
"2016-08-06 03:25:53+00",11.1,12.1,,75.6,-407,-423,-59,1011.9,75,0
"2016-08-06 03:30:53+00",12.0,14.0,,75.7,-361,-468,-57,1011.88,75.1,0
"2016-08-06 03:35:53+00",13.1,18.1,,75.8,-400,-517,-43,1011.83,75.3,0
"2016-08-06 03:40:53+00",12.1,15.1,,75.8,-354,-463,-10,1011.79,75.4,0
"2016-08-06 03:45:53+00",12.0,15.0,,75.8,-410,-470,-19,1011.77,75.5,0
"2016-08-06 03:50:53+00",11.2,14.2,,75.9,-314,-503,-67,1011.77,75.6,0
"2016-08-06 03:55:53+00",14.0,18.0,,75.9,-445,-576,-67,1011.77,75.6,0
"2016-08-06 04:00:53+00",16.4,18.4,,75.9,-494,-590,-46,1011.76,75.6,0
"2016-08-06 04:05:53+00",13.8,15.8,,75.9,-424,-517,-35,1011.82,75.7,0
"2016-08-06 04:10:53+00",14.1,16.1,,75.9,-471,-414,-12,1011.84,75.8,0
"2016-08-06 04:15:53+00",17.8,20.8,,75.9,-597,-525,-25,1011.82,75.7,0
"2016-08-06 04:20:53+00",14.6,18.6,,75.8,-449,-530,-31,1011.75,75.7,0
"2016-08-06 04:25:53+00",14.3,17.3,,75.8,-436,-510,-23,1011.86,75.7,0
"2016-08-06 04:30:53+00",17.2,18.2,,75.9,-518,-592,-32,1011.74,75.7,0
"2016-08-06 04:35:53+00",16.6,18.6,,75.9,-498,-607,-29,1011.78,75.6,0
"2016-08-06 04:40:53+00",17.0,20.0,,75.9,-511,-637,-32,1011.78,75.6,0
"2016-08-06 04:45:53+00",13.7,15.7,,75.9,-409,-518,-1,1011.72,75.7,0
"2016-08-06 04:50:53+00",15.3,18.3,,75.9,-490,-493,-9,1011.63,75.7,0
"2016-08-06 04:55:53+00",14.4,16.4,,76,-433,-538,-7,1011.56,75.7,0
"2016-08-06 05:00:53+00",13.7,15.7,,76,-408,-492,3,1011.55,75.7,0
"2016-08-06 05:05:53+00",18.1,20.1,,76.1,-589,-562,-36,1011.53,75.7,0
"2016-08-06 05:10:53+00",15.3,17.3,,76.1,-505,-465,-19,1011.55,75.8,0
"2016-08-06 05:15:53+00",15.4,17.4,,76.1,-534,-438,2,1011.51,75.8,0
"2016-08-06 05:20:53+00",15.1,18.1,,76.1,-473,-503,-24,1011.41,75.8,0
"2016-08-06 05:25:53+00",15.5,18.5,,76,-519,-455,-53,1011.32,75.8,0
"2016-08-06 05:30:53+00",17.8,19.8,,76,-606,-496,-38,1011.26,75.8,0
"2016-08-06 05:35:53+00",15.7,18.7,,75.9,-518,-480,-40,1011.19,75.7,0
"2016-08-06 05:40:53+00",16.5,17.5,,76,-542,-523,-37,1011.15,75.7,0
"2016-08-06 05:45:53+00",16.8,19.8,,76,-560,-512,-40,1011.1,75.7,0
"2016-08-06 05:50:53+00",17.1,18.1,,76,-557,-562,-27,1011.09,75.7,0
"2016-08-06 05:55:53+00",13.5,16.5,,75.9,-403,-511,3,1010.86,75.7,0
"2016-08-06 06:00:53+00",14.6,17.6,,75.8,-446,-572,-30,1010.76,75.6,0
"2016-08-06 06:05:53+00",13.2,15.2,,75.8,-403,-484,5,1010.69,75.7,0
"2016-08-06 06:10:53+00",15.1,18.1,,76,-490,-598,-50,1010.64,75.7,0
"2016-08-06 06:15:53+00",17.0,19.0,,76,-560,-540,-30,1010.55,75.7,0
"2016-08-06 06:20:53+00",13.7,16.7,,75.9,-441,-487,-22,1010.39,75.7,0
"2016-08-06 06:25:53+00",13.4,15.4,,75.9,-411,-556,-40,1010.29,75.7,0
"2016-08-06 06:30:53+00",13.1,16.1,,75.8,-377,-585,-48,1010.24,75.6,0
"2016-08-06 06:35:53+00",14.0,18.0,,75.9,-422,-570,-19,1010.19,75.7,0
"2016-08-06 06:40:53+00",13.7,16.7,,76,-421,-540,-28,1010.13,75.7,0
"2016-08-06 06:45:53+00",14.3,17.3,,76,-442,-563,-35,1010,75.7,0
"2016-08-06 06:50:53+00",14.2,19.2,,76,-418,-562,-26,1009.98,75.8,0
"2016-08-06 06:55:53+00",12.6,15.6,,76,-353,-580,-37,1009.9,75.8,0
"2016-08-06 07:00:53+00",12.4,14.4,,76,-372,-504,-52,1009.87,75.8,0
"2016-08-06 07:05:53+00",13.9,15.9,,76,-406,-572,-62,1009.87,75.8,0
"2016-08-06 07:10:53+00",13.4,15.4,,76,-398,-542,-41,1009.85,75.8,0
"2016-08-06 07:15:53+00",13.2,17.2,,76,-401,-529,-52,1009.8,75.8,0
"2016-08-06 07:20:53+00",13.3,16.3,,76,-411,-530,-53,1009.78,75.8,0
"2016-08-06 07:25:53+00",12.8,14.8,,76,-406,-495,-39,1009.77,75.7,0
"2016-08-06 07:30:53+00",13.0,16.0,,76,-418,-459,-47,1009.7,75.7,0
"2016-08-06 07:35:53+00",14.6,17.6,,76.1,-470,-544,-70,1009.62,75.6,0
"2016-08-06 07:40:53+00",15.7,17.7,,76.1,-483,-602,-72,1009.45,75.7,0
"2016-08-06 07:45:53+00",12.9,14.9,,76,-373,-566,-61,1009.4,75.6,0
"2016-08-06 07:50:53+00",11.4,13.4,,75.9,-374,-420,-45,1009.51,75.6,0
"2016-08-06 07:55:53+00",12.6,14.6,,76,-403,-463,-57,1009.56,75.5,0
"2016-08-06 08:00:53+00",12.5,14.5,,76,-431,-316,-16,1009.57,75.6,0
"2016-08-06 08:05:53+00",13.5,16.5,,76,-464,-368,-23,1009.55,75.6,0
"2016-08-06 08:10:53+00",13.2,15.2,,76.1,-431,-412,-33,1009.48,75.6,0
"2016-08-06 08:15:53+00",16.6,18.6,,76.1,-604,-441,-25,1009.44,75.7,0
"2016-08-06 08:20:53+00",13.9,15.9,,76,-513,-350,-36,1009.59,75.8,0
"2016-08-06 08:25:53+00",15.8,18.8,,76,-568,-417,-27,1009.51,75.8,0
"2016-08-06 08:30:53+00",17.3,20.3,,76,-614,-474,-34,1009.55,75.8,0
"2016-08-06 08:35:53+00",17.7,19.7,,76,-613,-477,-36,1009.51,75.8,0
"2016-08-06 08:40:53+00",14.6,17.6,,76,-525,-381,-23,1009.47,75.8,0
"2016-08-06 08:45:53+00",13.8,16.8,,76,-485,-369,-41,1009.46,75.8,0
"2016-08-06 08:50:53+00",14.9,18.9,,76,-543,-400,-9,1009.43,75.8,0
"2016-08-06 08:55:53+00",13.4,16.4,,76,-446,-414,-11,1009.31,75.8,0
"2016-08-06 09:00:53+00",15.6,18.6,,76.1,-510,-499,-44,1009.21,75.8,0
"2016-08-06 09:05:53+00",13.3,14.3,,76,-434,-463,-36,1009.23,75.8,0
"2016-08-06 09:10:53+00",13.7,16.7,,76,-446,-522,-42,1009.11,75.8,0
"2016-08-06 09:15:53+00",15.0,18.0,,76,-480,-589,-36,1009.15,75.8,0
"2016-08-06 09:20:53+00",11.9,14.9,,76,-304,-458,-24,1009.13,75.8,0
"2016-08-06 09:25:53+00",12.2,16.2,,75.9,-302,-454,14,1009.04,75.7,0
"2016-08-06 09:30:53+00",15.1,18.1,,76,-415,-545,-4,1009.13,75.6,0
"2016-08-06 09:35:53+00",14.5,17.5,,76,-412,-517,15,1009.19,75.6,0
"2016-08-06 09:40:53+00",14.0,17.0,,76,-408,-492,6,1009.25,75.6,0
"2016-08-06 09:45:53+00",16.1,18.1,,76.1,-450,-572,13,1009.27,75.6,0
"2016-08-06 09:50:53+00",16.4,19.4,,76.1,-461,-580,13,1009.31,75.6,0
"2016-08-06 09:55:53+00",14.7,18.7,,76,-446,-506,17,1009.26,75.6,0
"2016-08-06 10:00:53+00",16.6,18.6,,76.1,-507,-560,1,1009.23,75.6,0
"2016-08-06 10:05:53+00",14.5,16.5,,75.9,-411,-516,6,1009.14,75.7,0
"2016-08-06 10:10:53+00",12.6,14.6,,75.9,-352,-453,6,1009.19,75.6,0
"2016-08-06 10:15:53+00",16.4,18.4,,76,-435,-603,-6,1009.23,75.6,0
"2016-08-06 10:20:53+00",17.9,19.9,,76.1,-486,-656,-4,1009.18,75.7,0
"2016-08-06 10:25:53+00",15.4,18.4,,76.1,-429,-557,9,1009.21,75.8,0
"2016-08-06 10:30:53+00",14.7,16.7,,76,-437,-508,5,1009.3,75.8,0
"2016-08-06 10:35:53+00",12.4,13.4,,76,-361,-438,10,1009.36,75.9,0
"2016-08-06 10:40:53+00",13.4,17.4,,76,-387,-476,8,1009.33,75.8,0
"2016-08-06 10:45:53+00",12.8,14.8,,75.9,-345,-467,13,1009.37,75.8,0
"2016-08-06 10:50:53+00",12.1,15.1,,75.9,-276,-458,-2,1009.27,75.8,0
"2016-08-06 10:55:53+00",8.9,9.9,,75.9,-217,-342,19,1009.17,75.8,0
"2016-08-06 11:00:53+00",14.1,18.1,,76,-394,-512,10,1009.14,75.9,0
"2016-08-06 11:05:53+00",13.5,16.5,,76,-390,-488,20,1009.08,76,1.5
"2016-08-06 11:10:53+00",13.2,15.2,,76,-376,-470,-3,1009.18,76.1,6.4
"2016-08-06 11:15:53+00",12.5,14.5,,76,-375,-429,7,1009.2,76.1,0.2
"2016-08-06 11:20:53+00",11.7,13.7,,76,-332,-416,4,1009.26,76.1,5.5
"2016-08-06 11:25:53+00",10.8,12.8,,76.1,-326,-374,27,1009.19,76.2,30.1
"2016-08-06 11:30:53+00",14.0,15.0,,76.1,-393,-493,-1,1009.13,76.4,9.3
"2016-08-06 11:35:53+00",11.8,13.8,,76.2,-342,-408,8,1009.21,76.5,22.6
"2016-08-06 11:40:53+00",12.2,15.2,,76.3,-342,-440,1,1009.06,76.7,99
"2016-08-06 11:45:53+00",11.2,14.2,,76.5,-284,-414,12,1008.95,77.2,126.5
"2016-08-06 11:50:53+00",10.9,12.9,,76.6,-285,-397,16,1008.93,77.6,64.1
"2016-08-06 11:55:53+00",11.2,12.2,,76.6,-319,-387,-6,1008.99,77.7,41.2
"2016-08-06 12:00:53+00",10.4,12.4,,76.7,-287,-374,-3,1009.01,77.7,75.4
"2016-08-06 12:05:53+00",10.2,12.2,,76.9,-321,-323,16,1008.93,77.9,190.8
"2016-08-06 12:10:53+00",12.2,14.2,,76.9,-387,-379,7,1008.86,78.7,157.1
"2016-08-06 12:15:53+00",12.7,14.7,,77,-381,-445,20,1008.78,78.7,78.1
"2016-08-06 12:20:53+00",13.5,14.5,,76.9,-441,-410,2,1008.81,78.6,79
"2016-08-06 12:25:53+00",11.6,13.6,,77.1,-397,-340,30,1008.72,78.6,106.2
"2016-08-06 12:30:53+00",13.6,16.6,,77.2,-456,-383,6,1008.59,78.5,70.2
"2016-08-06 12:35:53+00",12.6,15.6,,77.3,-413,-389,16,1008.62,78.4,63.6
"2016-08-06 12:40:53+00",13.7,16.7,,77.3,-415,-477,12,1008.62,78.2,40
"2016-08-06 12:45:53+00",13.5,15.5,,77.2,-396,-470,-2,1008.61,78.1,46.8
"2016-08-06 12:50:53+00",14.5,16.5,,77.4,-413,-528,0,1008.59,78.1,59.2
"2016-08-06 12:55:53+00",12.3,14.3,,77.7,-365,-430,17,1008.63,78.3,55.2
"2016-08-06 13:00:53+00",12.8,15.8,,77.8,-407,-414,18,1008.59,78.3,47.9
"2016-08-06 13:05:53+00",13.7,15.7,,77.8,-421,-475,6,1008.52,78.4,79.9
"2016-08-06 13:10:53+00",13.7,15.7,,77.8,-408,-466,-5,1008.37,78.6,83.8
"2016-08-06 13:15:53+00",12.7,14.7,,77.9,-382,-441,6,1008.41,78.8,80.3
"2016-08-06 13:20:53+00",12.7,14.7,,78,-385,-437,20,1008.37,78.8,96.3
"2016-08-06 13:25:53+00",14.2,16.2,,78.1,-407,-510,-6,1008.4,79.1,101.1
"2016-08-06 13:30:53+00",12.8,15.8,,78.3,-423,-381,36,1008.4,79.3,110.8
"2016-08-06 13:35:53+00",13.8,15.8,,78.4,-454,-412,23,1008.35,79.7,123.4
"2016-08-06 13:40:53+00",14.3,16.3,,78.5,-460,-447,22,1008.36,80.1,185.3
"2016-08-06 13:45:53+00",14.9,16.9,,78.4,-525,-388,24,1008.31,80.6,214
"2016-08-06 13:50:53+00",14.4,16.4,,78.6,-516,-371,29,1008.32,81.1,275.3
"2016-08-06 13:55:53+00",12.5,14.5,,78.9,-414,-389,71,1008.32,81.7,333.9
"2016-08-06 14:00:53+00",10.8,11.8,,79.3,-374,-302,69,1008.36,82.5,212.3
"2016-08-06 14:05:53+00",13.0,15.0,,79.1,-532,-285,12,1008.31,82.7,150.7
"2016-08-06 14:10:53+00",10.8,11.8,,79,-368,-304,17,1008.3,82.4,83.3
"2016-08-06 14:25:53+00",14.1,16.1,,79.2,-485,-375,18,1008.2,81.6,78.2
"2016-08-06 14:30:53+00",13.1,14.1,,79.3,-422,-421,0,1008.05,81.4,106.6
"2016-08-06 14:35:53+00",10.1,12.1,,79.7,-326,-318,40,1007.98,81.5,95.2
"2016-08-06 14:40:53+00",10.1,12.1,,79.9,-318,-327,21,1007.97,82,256.3
"2016-08-06 14:45:53+00",10.4,12.4,,79.8,-418,-231,14,1008,82.4,209.4
"2016-08-06 14:50:53+00",9.7,11.7,,80,-356,-247,62,1007.94,82.8,147.1
"2016-08-06 14:55:53+00",10.2,11.2,,80.3,-334,-298,34,1007.84,83.3,373
"2016-08-06 15:00:53+00",12.1,14.1,,80.7,-403,-344,9,1007.75,84.1,333.9
"2016-08-06 15:05:53+00",11.0,13.0,,80.4,-369,-316,47,1007.84,83.8,81
"2016-08-06 15:10:53+00",10.9,12.9,,80.4,-355,-323,9,1007.76,83.6,121.6
"2016-08-06 15:15:53+00",11.2,13.2,,80.8,-318,-402,20,1007.8,83.6,373.5
"2016-08-06 15:20:53+00",10.2,12.2,,81.3,-323,-326,18,1007.66,84.2,505.2
"2016-08-06 15:25:53+00",10.5,11.5,,81.3,-395,-250,22,1007.73,84.2,299.1
"2016-08-06 15:30:53+00",8.9,9.9,,81.5,-369,-141,20,1007.65,84.9,475.8
"2016-08-06 15:35:53+00",8.7,10.7,,81.6,-347,-202,17,1007.56,85.9,486.3
"2016-08-06 15:40:53+00",9.9,10.9,,81.8,-357,-254,17,1007.54,86.5,498.3
"2016-08-06 15:45:53+00",9.5,11.5,,82.1,-353,-228,4,1007.44,87.1,484.2
"2016-08-06 15:50:53+00",11.6,13.6,,82.4,-381,-332,2,1007.37,87.8,519.2
"2016-08-06 15:55:53+00",11.9,13.9,,82.8,-284,-438,-14,1007.31,87.4,553.9
"2016-08-06 16:00:53+00",10.3,13.3,,83,-125,-427,24,1007.22,87,549.8
"2016-08-06 16:05:53+00",13.7,16.7,,82.7,-267,-532,-1,1007.1,86.2,545.4
"2016-08-06 16:10:53+00",11.0,14.0,,82.9,-194,-436,-1,1007.19,86.2,347.6
"2016-08-06 16:15:53+00",14.1,17.1,,82.7,-246,-556,-13,1007.24,85.9,347.6
"2016-08-06 16:20:53+00",11.2,15.2,,83.2,-83,-458,19,1007.26,85.7,642.9
"2016-08-06 16:25:53+00",14.2,17.2,,82.8,-161,-588,-27,1007.14,85.5,382.1
"2016-08-06 16:30:53+00",12.9,14.9,,82.5,-145,-539,-14,1007.13,84.7,284.8
"2016-08-06 16:35:53+00",11.6,12.6,,82.4,-277,-428,-13,1007.03,85,530.4
"2016-08-06 16:40:53+00",9.9,13.9,,82.9,-108,-408,9,1007.02,85.5,558.6
"2016-08-06 16:45:53+00",13.0,15.0,,82.7,-205,-518,-14,1006.91,85.7,529.4
"2016-08-06 16:50:53+00",13.7,15.7,,82.7,-294,-521,-5,1006.88,85.5,516.8
"2016-08-06 16:55:53+00",12.6,14.6,,82.9,-266,-487,6,1006.91,85.7,496.3
"2016-08-06 17:00:53+00",14.0,16.0,,83.1,-298,-537,2,1006.85,86.4,564.2
"2016-08-06 17:05:53+00",13.2,16.2,,82.8,-209,-533,-14,1006.83,86.1,485.1
"2016-08-06 17:10:53+00",9.5,15.5,,83.4,-104,-372,32,1006.8,86.2,484.9
"2016-08-06 17:15:53+00",14.1,17.1,,83.7,-343,-533,4,1006.92,86.5,157.4
"2016-08-06 17:20:53+00",15.4,19.4,,82.8,-364,-563,-17,1006.81,85.1,92.5
"2016-08-06 17:25:53+00",13.7,16.7,,82.7,-390,-485,14,1006.78,84.6,112.7
"2016-08-06 17:30:53+00",13.0,15.0,,82.9,-346,-471,3,1006.8,84.5,104.4
"2016-08-06 17:35:53+00",13.8,15.8,,82.8,-384,-504,14,1006.76,84.3,87.1
"2016-08-06 17:40:53+00",15.6,18.6,,82.6,-402,-571,5,1006.86,83.9,46.3
"2016-08-06 17:45:53+00",14.7,18.7,,82.6,-335,-560,-9,1006.75,83.5,49.2
"2016-08-06 17:50:53+00",14.4,16.4,,82.8,-349,-539,-1,1006.65,83.5,107.3
"2016-08-06 17:55:53+00",11.5,14.5,,82.5,-127,-469,-14,1006.67,83.6,107
"2016-08-06 18:00:53+00",11.1,16.1,,82.2,-128,-448,9,1006.67,83.2,56.9
"2016-08-06 18:05:53+00",9.7,14.7,,81.9,-58,-402,-19,1006.55,82.7,74.6
"2016-08-06 18:10:53+00",10.7,12.7,,81.7,-169,-418,-15,1006.53,82.5,68.5
"2016-08-06 18:15:53+00",12.7,15.7,,82.4,-271,-486,-7,1006.52,82.9,142.6
"2016-08-06 18:20:53+00",13.9,15.9,,83,-201,-555,-15,1006.36,84.1,439.8
"2016-08-06 18:25:53+00",14.1,18.1,,83.7,-385,-519,12,1006.39,85.2,490.6
"2016-08-06 18:30:53+00",15.6,19.6,,84,-406,-577,17,1006.34,86,482.4
"2016-08-06 18:35:53+00",15.2,18.2,,84,-356,-586,38,1006.29,86.4,479.5
"2016-08-06 18:40:53+00",15.3,16.3,,83.6,-427,-554,-5,1006.22,86.3,321.1
"2016-08-06 18:45:53+00",14.9,17.9,,84.4,-425,-532,27,1006.21,86.9,489.8
"2016-08-06 18:50:53+00",17.0,19.0,,84,-490,-593,15,1006.22,86.7,156.8
"2016-08-06 18:55:53+00",16.9,18.9,,83.5,-467,-603,-3,1006.14,85.9,273.6
"2016-08-06 19:00:53+00",15.6,18.6,,83.2,-443,-554,6,1006.05,85.1,99.7
"2016-08-06 19:05:53+00",15.2,18.2,,83.1,-436,-533,15,1005.98,84.8,164.9
"2016-08-06 19:10:53+00",16.4,18.4,,83.3,-453,-592,1,1006,84.8,155.5
"2016-08-06 19:15:53+00",15.6,18.6,,83.5,-445,-565,12,1005.86,84.7,177.6
"2016-08-06 19:20:53+00",17.6,19.6,,84,-453,-658,-7,1005.79,85.5,453.8
"2016-08-06 19:25:53+00",16.1,19.1,,84.3,-335,-622,17,1005.66,86,403.1
"2016-08-06 19:30:53+00",16.3,19.3,,84.4,-367,-614,-14,1005.61,86.4,386.3
"2016-08-06 19:35:53+00",15.4,18.4,,84.4,-386,-574,-13,1005.69,86.5,379.7
"2016-08-06 19:40:53+00",15.8,17.8,,84,-341,-616,-3,1005.61,86.4,314.9
"2016-08-06 19:45:53+00",15.6,17.6,,84.1,-366,-589,-6,1005.59,86,282.8
"2016-08-06 19:50:53+00",17.1,20.1,,84.3,-306,-674,-6,1005.46,86.2,380.5
"2016-08-06 19:55:53+00",17.0,21.0,,84.1,-353,-652,6,1005.53,86.2,380
"2016-08-06 20:00:53+00",14.5,18.5,,84,-285,-570,7,1005.5,85.9,92.8
"2016-08-06 20:05:53+00",16.6,18.6,,83.6,-380,-624,-10,1005.39,85.1,97.1
"2016-08-06 20:10:53+00",17.2,20.2,,83.8,-382,-659,-1,1005.35,85.1,233
"2016-08-06 20:15:53+00",18.6,20.6,,84,-477,-684,-1,1005.33,85.6,296
"2016-08-06 20:20:53+00",16.7,19.7,,84.4,-416,-630,12,1005.33,85.9,326.9
"2016-08-06 20:25:53+00",16.3,19.3,,84.4,-382,-615,-8,1005.29,86.3,339.5
"2016-08-06 20:30:53+00",15.2,18.2,,84.3,-339,-586,19,1005.1,86.2,115
"2016-08-06 20:35:53+00",13.1,15.1,,83.9,-286,-512,30,1005.14,85.4,60.2
"2016-08-06 20:40:53+00",14.1,17.1,,84,-367,-520,20,1005.17,85.3,302.8
"2016-08-06 20:45:53+00",15.5,19.5,,84.1,-382,-585,-3,1005.07,85.7,136.9
"2016-08-06 20:50:53+00",14.6,17.6,,84.4,-370,-550,20,1005.17,86.1,255.4
"2016-08-06 20:55:53+00",17.4,20.4,,84.6,-578,-504,11,1005.03,86.4,250.6
"2016-08-06 21:00:53+00",15.6,18.6,,84.5,-370,-592,4,1004.91,86.5,245.9
"2016-08-06 21:05:53+00",15.2,17.2,,84.4,-389,-566,0,1004.88,86.6,236.1
"2016-08-06 21:10:53+00",14.9,17.9,,84.8,-457,-495,7,1004.91,86.9,222.4
"2016-08-06 21:15:53+00",16.8,19.8,,84.9,-433,-627,2,1004.92,87.1,216.3
"2016-08-06 21:20:53+00",16.5,18.5,,85.1,-457,-599,10,1004.97,87.2,219.3
"2016-08-06 21:25:53+00",15.0,17.0,,85.1,-470,-471,9,1005.04,87.5,203
"2016-08-06 21:30:53+00",14.8,17.8,,85.1,-449,-508,28,1004.88,87.4,179.6
"2016-08-06 21:35:53+00",15.7,18.7,,85,-486,-527,22,1004.78,87.2,119.7
"2016-08-06 21:40:53+00",15.0,18.0,,84.7,-423,-528,10,1004.81,86.8,69.5
"2016-08-06 21:45:53+00",13.8,16.8,,84.5,-417,-481,22,1004.8,86.1,46.1
"2016-08-06 21:50:53+00",13.7,16.7,,84.3,-393,-498,-4,1004.94,85.6,65.2
"2016-08-06 21:55:53+00",15.5,17.5,,84.4,-465,-532,4,1004.91,85.3,50.1
"2016-08-06 22:00:53+00",15.0,17.0,,84.6,-453,-509,16,1004.93,85.7,120.3
"2016-08-06 22:05:53+00",12.8,13.8,,84.5,-362,-460,20,1004.94,85.6,59.9
"2016-08-06 22:10:53+00",14.3,16.3,,84.4,-442,-480,-4,1004.8,85.5,97.4
"2016-08-06 22:15:53+00",11.8,14.8,,84.7,-355,-400,19,1004.76,85.7,154.9
"2016-08-06 22:20:53+00",13.5,15.5,,84.8,-391,-470,1,1004.87,86.1,79.2
"2016-08-06 22:25:53+00",11.8,13.8,,84.7,-389,-329,3,1005.04,85.9,19.7
"2016-08-06 22:30:53+00",12.2,14.2,,84.5,-391,-374,5,1005.07,85.6,2.5
"2016-08-06 22:35:53+00",11.2,13.2,,84.3,-380,-320,20,1005.12,85.2,0.5
"2016-08-06 22:40:53+00",11.7,13.7,,84.2,-352,-399,0,1004.96,84.9,6.4
"2016-08-06 22:45:53+00",11.8,13.8,,84.2,-367,-389,4,1005.16,84.7,5.1
"2016-08-06 22:50:53+00",9.8,11.8,,84.3,-306,-323,20,1005.15,84.7,8.4
"2016-08-06 22:55:53+00",12.7,14.7,,84,-395,-416,7,1005.15,84.6,14.3
"2016-08-06 23:00:53+00",13.6,15.6,,83.7,-434,-427,3,1005.08,84.3,15.9
"2016-08-06 23:05:53+00",13.2,16.2,,83.6,-405,-428,-8,1005.17,84.3,5.8
"2016-08-06 23:10:53+00",12.1,15.1,,83.4,-385,-388,12,1005.11,84.1,0.8
"2016-08-06 23:15:53+00",11.6,14.6,,83.2,-371,-360,10,1005.07,83.9,0
"2016-08-06 23:20:53+00",12.6,14.6,,83.1,-399,-397,-8,1005.17,83.8,10.4
"2016-08-06 23:25:53+00",11.0,13.0,,83,-343,-348,-4,1005.1,83.7,3.1
"2016-08-06 23:30:53+00",10.9,13.9,,82.8,-332,-370,17,1005.06,83.6,0
"2016-08-06 23:35:53+00",10.6,12.6,,82.7,-322,-364,10,1005.08,83.3,0
"2016-08-06 23:40:53+00",11.4,14.4,,82.6,-351,-363,-5,1005.13,83.1,0
"2016-08-06 23:45:53+00",11.0,12.0,,82.5,-370,-314,9,1005.23,82.9,0
"2016-08-06 23:50:53+00",10.2,11.2,,82.5,-369,-252,6,1005.32,82.8,0
"2016-08-06 23:55:53+00",10.2,11.2,,82.8,-432,-203,18,1005.51,82.7,0
